Simultaneous Nadir Overpasses (SNOs) Predictions

Prediction of SNOs between GOES-15 and NPP Satellite Orbit:

Table of predicted SNOs for the next 14.0 days since TLE Epoch: 1/6/2024
Index Date Time (GOES-15) GOES-15 Lat,Lon NPP Lat,Lon Distance(km) Time Diff (sec)
1 01/06/2024 21:27:21 -0.05, 61.39 0.29, 59.90 169.83 80
2 01/07/2024 21:05:57 -0.04, 61.41 -0.69, 64.43 344.26 80
3 01/09/2024 09:27:54 0.04, 61.53 -0.50, 59.12 274.25 80
4 01/10/2024 09:11:49 0.04, 61.55 0.49, 63.66 239.95 80
5 01/11/2024 21:33:39 -0.04, 61.49 0.64, 58.38 354.27 80
6 01/12/2024 21:12:14 -0.03, 61.52 -0.35, 62.91 159.00 80
7 01/14/2024 09:34:11 0.04, 61.66 -0.88, 57.61 461.43 80
8 01/15/2024 09:18:07 0.04, 61.68 0.17, 62.13 52.40 80
9 01/17/2024 21:21:11 -0.04, 61.64 0.02, 61.39 27.97 80
10 01/18/2024 20:59:46 -0.04, 61.67 -0.98, 65.93 485.11 80
